Regional Weather Roundup
Issued by NWS Cleveland, OH

Home | Current Version | Previous Version | Graphics & Text | Print | Product List | Glossary On
Versions: 1 2 3 4 5 6 7 8 9 10 11 12 13 14 15 16 17 18 19 20 21 22 23 24 25 26 27 28 29 30 31 32 33 34 35 36 37 38 39 40 41 42 43 44 45 46 47 48 49 50
000
ASUS41 KCLE 171312
RWRCLE
OHIO REGIONAL WEATHER ROUNDUP
NATIONAL WEATHER SERVICE WILMINGTON, OH
900 AM EDT TUE OCT 17 2017

NOTE: "FAIR" INDICATES FEW OR NO CLOUDS BELOW 12,000 FEET WITH NO
SIGNIFICANT WEATHER AND/OR OBSTRUCTIONS TO VISIBILITY.

OHZ001>008-015>018-024>027-034-035-043-044-171400-
   NORTHWEST OHIO

CITY           SKY/WX    TMP DP  RH WIND       PRES   REMARKS
DEFIANCE       FAIR      46  38  73 SW8       30.29R
FINDLAY        FAIR      48  38  68 SW10      30.30R
TOLEDO EXPRESS FAIR      47  40  76 SW12      30.27S
TOLEDO EXEC    FAIR      47  39  74 SW12      30.28S
LIMA           FAIR      47  38  71 SW9       30.32R
$$

OHZ009>014-019>023-028>033-038-089-171400-
   NORTHEAST OHIO

CITY           SKY/WX    TMP DP  RH WIND       PRES   REMARKS
CLE-HOPKINS    FAIR      48  38  68 S10       30.33R
CLE-LAKEFRONT  FAIR      49  36  61 S14       30.30R
CUY CO. ARPT   SUNNY     50  37  62 S10       30.31R
LORAIN-ELYRIA    N/A    N/A N/A N/A MISG      30.31S
ASHTABULA      FAIR      42  36  79 S9        30.31S
AKRON-CANTON   FAIR      44  36  73 SW8       30.33S
WOOSTER        FAIR      43  39  86 SW6       30.34R
MANSFIELD      FAIR      46  39  76 S7        30.32S
YOUNGSTOWN     FAIR      42  34  73 S7        30.32S
$$

OHZ042-051>053-060>062-070>072-077>081-171400-
  SOUTHWEST OHIO

CITY           SKY/WX    TMP DP  RH WIND       PRES   REMARKS
CINC-COVINGTON FAIR      46  43  89 CALM      30.37R
CINC-LUNKEN    FAIR      42  42 100 CALM      30.40R FOG
HAMILTON       PTSUNNY   41  41 100 CALM      30.40R FOG
DAYTON         FAIR      46  41  82 SW8       30.37R
WRIGHT-PAT AFB MOSUNNY   41  40  99 CALM      30.36R
DAYTON GENERAL FAIR      45  40  82 CALM      30.36R
WILMINGTON     FAIR      46  41  82 S3        30.37R
$$

OHZ036-037-039>041-045>050-054>059-063>069-073>076-082>088-171400-
  CENTRAL AND SOUTHEAST OHIO

CITY           SKY/WX    TMP DP  RH WIND       PRES   REMARKS
COLUMBUS       FAIR      44  41  89 S3        30.36R
OSU AIRPORT    FAIR      44  42  93 CALM      30.36R
BOLTON FIELD   SUNNY     39  39 100 CALM      30.37R
RICKENBACK AFB FAIR      40  40  99 CALM      30.37S
NEWARK         FAIR      40  38  93 CALM      30.37R
MARION         FAIR      43  39  86 S7        30.34R
LANCASTER      FAIR      42  40  92 CALM      30.37R
ZANESVILLE     FAIR      38  36  92 CALM      30.37R
NEW PHILLY     FAIR      40  38  93 SE3       30.38R FOG
$$




USA.gov is the U.S. government's official web portal to all federal, state and local government web resources and services.